Location: Lango�lan
(48.1202°N, 3.2340°W)
Time: 14:46:10
(UTC+00:00)

CZ-2C R/B - Pass Details

Date: 23 October 2019
Orbit: 668 x 784 km, 98.1° (Epoch: 14 November)

Event Time Altitude Azimuth Distance (km) Brightness Sun altitude
Rises 05:06:42 0° 11° (N) 3,287 5.9 -16.8°
Reaches altitude 10° 05:09:03 10° 8° (N) 2,352 5.1 -16.4°
Maximum altitude 05:14:12 64° 288° (WNW) 861 2.5 -15.6°
Drops below altitude 10° 05:19:14 10° 208° (SSW) 2,302 4.7 -14.7°
Sets 05:21:32 0° 205° (SSW) 3,211 5.5 -14.4°
